Location: Azul
(36.7830°S, 59.8500°W)
Time: 07:47:07
(UTC-03:00)

ISS - Pass Details

Date: 23 May 2020
Orbit: 417 x 419 km, 51.6° (Epoch: 31 May)

Event Time Altitude Azimuth Distance (km) Brightness Sun altitude
Exits shadow 07:06:43 - 293° (WNW) 1,635 -1.2 -10.2°
Reaches altitude 10° 07:07:02 10° 292° (WNW) 1,512 -1.4 -10.2°
Maximum altitude 07:10:19 46° 217° (SW) 586 -3.4 -9.5°
Drops below altitude 10° 07:13:38 10° 142° (SE) 1,526 -0.7 -8.9°
Sets 07:15:49 0° 135° (SE) 2,396 0.5 -8.5°
